Weather in Conquista

Brazil     22°16′56″S   42°32′03″W
temp.,
°C
wind,
m/s
gust,
m/s
humid.,
%
clouds,
%
prec.,
mm/h
press.,
hPa
HPBL,
m
21 april, wed
wed2100:00+13sw259844 0.0 1015239
03:00+13sw259826 0.1 1014248
06:00+13sw249856 0.0 1014231
09:00+18sw257627 0.1 1015732
12:00+20sw346829 0.1 10141100
15:00+20ssw356911 0.3 1013993
18:00+14ssw249945 0.1 1015137
21:00+14ssw249845 0.1 1016168
22 april, thu
thu2200:00+15ssw139871 0.1 1016140
03:00+14ssw129953 0.1 101571
06:00+13ssw229941 0.0 101687
09:00+19sw127526 0.1 1017685
12:00+18sw128620 2.4 1016660
15:00+18s128557 4.3 1015655
18:00+14s249664 0.3 1016168
21:00+12ssw129921 0.3 101861
23 april, fri
fri2300:00+13sw119692 0.0 101839
03:00+13sw11940 0.0 101716
06:00+11w01960 0.0 101812
09:00+18n12722 0.0 1018601
12:00+20n246858 0.1 10161247
15:00+18nnw238332 0.9 1015539
18:00+15sse119830 0.3 101639
21:00+14sse119963 0.3 101848
24 april, sat
sat2400:00+15nne119894 0.0 101740
03:00+15n119998 0.1 101668
06:00+15n129995 0.1 101799
09:00+17nnw149295 0.1 1017353
12:00+21nnw356827 0.1 10151044
15:00+21nw24696 0.3 1013941
18:00+16se119812 0.1 101418
21:00+16sse119839 0.1 101619
25 april, sun
sun2500:00+15sw019829 0.0 101512
03:00+16wnw119794 0.0 101426
06:00+15nw11985 0.0 101514
09:00+21n137799 0.0 1015611
12:00+24nnw2460100 0.1 10131268
15:00+23nnw236846 0.3 1012987
18:00+17n019697 0.4 101412
21:00+16wsw11955 0.6 101512